Crosby, ND

6:49 AM CDT on June 28, 2017 (GMT -0500)
Crosby

Weather History for KD50 - October, 2012

Change the Weather History Date:

Sunday, October 14, 2012

  Actual Average (KISN) Record (KISN)
Temperature  
Mean Temperature 49 °F -  
Max Temperature 66 °F 56 °F 82 °F (1958)
Min Temperature 32 °F 30 °F 15 °F (2006)
Degree Days  
Heating Degree Days 16    
Moisture  
Dew Point 36 °F    
Average Humidity 70    
Maximum Humidity 100    
Minimum Humidity 32    
Precipitation  
Precipitation 0.00 in - - ()
Sea Level Pressure  
Sea Level Pressure 29.91 in    
Wind  
Wind Speed 7 mph (SW)    
Max Wind Speed 13 mph    
Max Gust Speed -    
Visibility 10 miles    
Events Rain    
Averages and records for this station are not official NWS values.
T = Trace of Precipitation, MM = Missing Value Source: NWS Daily Summary

Daily Weather History Graph

Daily Weather History Graph

Search for Another Location

Airport or City:

Trip Planner

Search our weather history database for the weather conditions in past years. The results will help you decide how hot, cold, wet, or windy it might be!

Date:

Astronomy

Oct. 14, 2012 Rise Set
Actual Time 8:13 AM CDT 7:04 PM CDT
Civil Twilight 7:41 AM CDT 7:36 PM CDT
Nautical Twilight 7:04 AM CDT 8:12 PM CDT
Astronomical Twilight 6:27 AM CDT 8:49 PM CDT
Moon 7:13 AM CDT (10/14) 6:24 PM CDT (10/14)
Length of Visible Light 11h 55m
Length of Day
10h 51m
Waning Crescent, 1% of the Moon is Illuminated
Oct 14
Waning Crescent
Oct 15
New
Oct 21
First Quarter
Oct 29
Full
Nov 6
Last Quarter

Hourly Weather History & Observations

Time (CDT) Temp. Windchill Dew Point Humidity Pressure Visibility Wind Dir Wind Speed Gust Speed Precip Events Conditions
12:15 AM 32.0 °F 27.5 °F 30.2 °F 93% 29.94 in 9.0 mi SSW 4.6 mph - N/A   Clear
12:35 AM 32.0 °F 26.4 °F 32.0 °F 100% 29.94 in 10.0 mi South 5.8 mph - N/A   Partly Cloudy
12:55 AM 32.0 °F 27.5 °F 32.0 °F 100% 29.93 in 10.0 mi South 4.6 mph - N/A   Scattered Clouds
1:15 AM 33.8 °F 28.6 °F 32.0 °F 93% 29.94 in 10.0 mi SSW 5.8 mph - N/A   Partly Cloudy
1:35 AM 35.6 °F 31.7 °F 32.0 °F 87% 29.94 in 10.0 mi South 4.6 mph - N/A   Clear
1:55 AM 33.8 °F 27.7 °F 32.0 °F 93% 29.94 in 10.0 mi SW 6.9 mph - N/A   Clear
2:15 AM 32.0 °F 26.4 °F 32.0 °F 100% 29.94 in 10.0 mi SSW 5.8 mph - N/A   Clear
2:35 AM 33.8 °F 28.6 °F 32.0 °F 93% 29.94 in 10.0 mi SSW 5.8 mph - N/A   Partly Cloudy
2:55 AM 35.6 °F 31.7 °F 33.8 °F 93% 29.95 in 10.0 mi SSW 4.6 mph - N/A   Mostly Cloudy
3:15 AM 35.6 °F 32.8 °F 35.6 °F 100% 29.96 in 10.0 mi WSW 3.5 mph - N/A   Mostly Cloudy
3:35 AM 37.4 °F 34.9 °F 35.6 °F 93% 29.97 in 10.0 mi WNW 3.5 mph - N/A Rain Light Rain
3:55 AM 39.2 °F 34.2 °F 37.4 °F 93% 29.96 in 7.0 mi South 6.9 mph - N/A Rain Light Rain
4:15 AM 37.4 °F - 37.4 °F 100% 29.95 in 10.0 mi Calm Calm - N/A   Mostly Cloudy
4:35 AM 35.6 °F 30.7 °F 35.6 °F 100% 29.95 in 9.0 mi SSW 5.8 mph - N/A   Mostly Cloudy
4:55 AM 37.4 °F 32.1 °F 37.4 °F 100% 29.95 in 9.0 mi SSW 6.9 mph - N/A   Overcast
5:15 AM 39.2 °F 33.0 °F 39.2 °F 100% 29.95 in 9.0 mi SSW 9.2 mph - N/A   Mostly Cloudy
5:35 AM 39.2 °F 33.6 °F 37.4 °F 93% 29.95 in 10.0 mi SSW 8.1 mph - N/A   Mostly Cloudy
5:55 AM 37.4 °F 30.3 °F 35.6 °F 93% 29.94 in 10.0 mi SSW 10.4 mph - N/A   Clear
6:15 AM 37.4 °F 29.8 °F 37.4 °F 100% 29.94 in 10.0 mi SSW 11.5 mph - N/A   Scattered Clouds
6:35 AM 37.4 °F 31.4 °F 35.6 °F 93% 29.95 in 10.0 mi SSW 8.1 mph - N/A   Scattered Clouds
6:55 AM 37.4 °F 31.4 °F 35.6 °F 93% 29.95 in 10.0 mi SSW 8.1 mph - N/A   Partly Cloudy
7:15 AM 37.4 °F 31.4 °F 35.6 °F 93% 29.95 in 10.0 mi SSW 8.1 mph - N/A   Partly Cloudy
7:35 AM 37.4 °F 30.8 °F 35.6 °F 93% 29.95 in 10.0 mi SSW 9.2 mph - N/A   Partly Cloudy
7:55 AM 37.4 °F 31.4 °F 35.6 °F 93% 29.94 in 10.0 mi SSW 8.1 mph - N/A   Partly Cloudy
8:15 AM 37.4 °F 31.4 °F 35.6 °F 93% 29.95 in 9.0 mi SSW 8.1 mph - N/A   Scattered Clouds
8:35 AM 37.4 °F 32.8 °F 35.6 °F 93% 29.95 in 8.0 mi South 5.8 mph - N/A   Mostly Cloudy
8:55 AM 39.2 °F 37.0 °F 37.4 °F 93% 29.95 in 9.0 mi South 3.5 mph - N/A   Mostly Cloudy
9:15 AM 39.2 °F 34.2 °F 35.6 °F 87% 29.95 in 9.0 mi SSW 6.9 mph - N/A   Scattered Clouds
9:35 AM 41.0 °F 34.7 °F 37.4 °F 87% 29.95 in 9.0 mi SSW 10.4 mph - N/A   Partly Cloudy
9:55 AM 42.8 °F 36.2 °F 39.2 °F 87% 29.95 in 10.0 mi SSW 12.7 mph - N/A   Clear
10:15 AM 46.4 °F 40.7 °F 39.2 °F 76% 29.96 in 10.0 mi SW 12.7 mph - N/A   Clear
10:35 AM 48.2 °F - 39.2 °F 71% 29.96 in 10.0 mi SSW 11.5 mph - N/A   Partly Cloudy
10:55 AM 50.0 °F - 39.2 °F 66% 29.95 in 10.0 mi SW 11.5 mph - N/A   Scattered Clouds
11:15 AM 50.0 °F - 39.2 °F 66% 29.94 in 10.0 mi SSW 11.5 mph - N/A   Scattered Clouds
11:35 AM 53.6 °F - 41.0 °F 62% 29.95 in 10.0 mi SSW 10.4 mph - N/A   Clear
11:55 AM 55.4 °F - 39.2 °F 54% 29.95 in 10.0 mi SW 10.4 mph - N/A   Clear
12:15 PM 57.2 °F - 39.2 °F 51% 29.93 in 10.0 mi SW 8.1 mph - N/A   Clear
12:35 PM 57.2 °F - 39.2 °F 51% 29.93 in 10.0 mi WSW 9.2 mph - N/A   Clear
12:55 PM 59.0 °F - 37.4 °F 45% 29.93 in 10.0 mi West 10.4 mph - N/A   Clear
1:15 PM 59.0 °F - 39.2 °F 48% 29.93 in 10.0 mi West 9.2 mph - N/A   Clear
1:35 PM 59.0 °F - 39.2 °F 48% 29.92 in 10.0 mi WNW 6.9 mph - N/A   Clear
1:55 PM 60.8 °F - 39.2 °F 45% 29.92 in 10.0 mi WNW 9.2 mph - N/A   Clear
2:15 PM 62.6 °F - 39.2 °F 42% 29.91 in 10.0 mi West 8.1 mph - N/A   Clear
2:35 PM 64.4 °F - 39.2 °F 40% 29.90 in 10.0 mi NW 9.2 mph - N/A   Clear
3:15 PM 64.4 °F - 39.2 °F 40% 29.89 in 10.0 mi WNW 6.9 mph - N/A   Clear
3:35 PM 66.2 °F - 39.2 °F 37% 29.88 in 10.0 mi NW 5.8 mph - N/A   Clear
3:55 PM 66.2 °F - 37.4 °F 35% 29.88 in 10.0 mi NW 10.4 mph - N/A   Clear
4:15 PM 66.2 °F - 35.6 °F 32% 29.88 in 10.0 mi NW 11.5 mph - N/A   Clear
4:35 PM 66.2 °F - 35.6 °F 32% 29.88 in 10.0 mi WNW 8.1 mph - N/A   Clear
4:55 PM 66.2 °F - 35.6 °F 32% 29.87 in 10.0 mi WNW 8.1 mph - N/A   Clear
5:15 PM 64.4 °F - 35.6 °F 34% 29.87 in 10.0 mi West 5.8 mph - N/A   Clear
5:35 PM 64.4 °F - 35.6 °F 34% 29.87 in 10.0 mi NNW 4.6 mph - N/A   Clear
5:55 PM 64.4 °F - 35.6 °F 34% 29.87 in 10.0 mi NNW 3.5 mph - N/A   Clear
6:15 PM 62.6 °F - 35.6 °F 37% 29.87 in 10.0 mi Calm Calm - N/A   Clear
6:35 PM 57.2 °F - 35.6 °F 44% 29.86 in 10.0 mi WNW 3.5 mph - N/A   Clear
6:55 PM 53.6 °F - 32.0 °F 44% 29.86 in 10.0 mi West 4.6 mph - N/A   Clear
7:15 PM 50.0 °F - 32.0 °F 50% 29.86 in 10.0 mi West 4.6 mph - N/A   Clear
7:35 PM 46.4 °F - 32.0 °F 57% 29.86 in 10.0 mi Calm Calm - N/A   Clear
7:55 PM 44.6 °F 43.1 °F 32.0 °F 61% 29.86 in 10.0 mi South 3.5 mph - N/A   Clear
8:15 PM 41.0 °F - 32.0 °F 70% 29.85 in 10.0 mi Calm Calm - N/A   Clear
8:35 PM 41.0 °F 38.0 °F 32.0 °F 70% 29.85 in 10.0 mi South 4.6 mph - N/A   Clear
8:55 PM 39.2 °F 34.2 °F 32.0 °F 75% 29.85 in 10.0 mi SSW 6.9 mph - N/A   Clear
9:15 PM 44.6 °F 40.7 °F 33.8 °F 66% 29.84 in 10.0 mi SSW 6.9 mph - N/A   Clear
9:35 PM 44.6 °F 39.2 °F 33.8 °F 66% 29.83 in 10.0 mi South 10.4 mph - N/A   Clear
9:55 PM 48.2 °F - 33.8 °F 58% 29.83 in 10.0 mi South 9.2 mph - N/A   Clear
10:15 PM 46.4 °F 41.5 °F 35.6 °F 66% 29.82 in 10.0 mi SSW 10.4 mph - N/A   Partly Cloudy
10:35 PM 46.4 °F 41.5 °F 35.6 °F 66% 29.82 in 10.0 mi SSW 10.4 mph - N/A   Scattered Clouds
10:55 PM 48.2 °F - 35.6 °F 62% 29.81 in 10.0 mi SSW 10.4 mph - N/A   Scattered Clouds
11:15 PM 48.2 °F - 37.4 °F 66% 29.81 in 10.0 mi SSW 10.4 mph - N/A   Mostly Cloudy
11:35 PM 48.2 °F - 37.4 °F 66% 29.80 in 10.0 mi SSW 8.1 mph - N/A   Overcast
11:55 PM 50.0 °F - 37.4 °F 62% 29.79 in 10.0 mi South 10.4 mph - N/A   Overcast